Content
SEND FEEDBACK

Daily
Averages
Monthly
Summary
United States of America

FORTESCUE, NEW JERSEY


Home > North America > United States > New Jersey
Elevation: 10 feet     Latitude: 39 14N     Longitude: 075 10W

WEATHER
 
SELECT A DAY
Number of Records: 201,877;   Date Range: 1/1/95 - 8/28/14
 
SHARE

PRINT THIS DATA

[ ← Previous Day ]
WEATHER ALMANAC - JANUARY 31, 2013
[ Next Day → ]
[ °C ]   °F
Weather ElementAverageHighLow
Temperature48.2 °F59 °F (3:54 am)28.9 °F (11:54 pm)
Dewpoint35.4 °F55.9 °F (3:54 am)9 °F (9:54 pm)
Humidity65 %94 % (1:31 am)34 % (2:54 pm)
Barometer29.46 in29.91 in (11:54 pm)29.17 in (2:54 am)
Wind Speed18.1 mph28.8 mph (8:54 am)
Wind Gust41.4 mph (10:54 am)
Weather ElementAverage
Visibility8 mi
Wind DirectionWSW (243.7 °)

Weather ElementTotal
Precipitation1.80 in
Heating Degree Days21.1 (Base 65)
Averaged from 30 records on January 31, 2013
WEATHER CONDITIONS BREAKOUT
WIND DIRECTION BREAKOUT
WEATHER BY HOUR - JANUARY 31, 2013
[ °C ]   °F
Local TimeTemperatureDewpointHumidityBarometerVisibilityWind DirectionWind SpeedGust SpeedPrecipitationEventsConditions
1:31 AM57.2 °F55.4 °F94 %29.26 in6.0 miSouth (170°)17.3 mph28.8 mph0.03 inRainLight Rain
1:54 AM57.9 °F55.0 °F90 %29.24 in8.0 miSouth (180°)15.0 mph32.2 mph0.03 inRainLight Rain
2:09 AM57.2 °F55.4 °F94 %29.22 in9.0 miSouth (170°)13.8 mph33.4 mph0.00 inOvercast
2:30 AM57.2 °F53.6 °F88 %29.21 in7.0 miSouth (170°)13.8 mph27.6 mph0.00 inOvercast
2:38 AM57.2 °F53.6 °F88 %29.19 in7.0 miSouth (170°)18.4 mph36.8 mph0.00 inOvercast
2:54 AM57.0 °F55.0 °F93 %29.17 in4.0 miSouth (170°)17.3 mph35.7 mph0.01 inRainRain
3:04 AM57.2 °F55.4 °F94 %29.18 in2.5 miSouth (190°)16.1 mph29.9 mph0.04 inRainRain
3:18 AM57.2 °F55.4 °F94 %29.20 in2.0 miSSW (210°)15.0 mph35.7 mph0.12 inRainHeavy Rain
3:24 AM57.2 °F55.4 °F94 %29.26 in1.0 miWest (260°)17.3 mph34.5 mph0.27 inRainHeavy Rain
3:37 AM57.2 °F55.4 °F94 %29.24 in3.0 miWSW (240°)9.2 mph18.4 mph0.37 inRainLight Rain
3:44 AM57.2 °F55.4 °F94 %29.25 in7.0 miWSW (240°)13.8 mph21.9 mph0.38 inRainLight Rain
3:54 AM59.0 °F55.9 °F90 %29.23 in5.0 miWSW (240°)9.2 mph19.6 mph0.40 inRainRain
4:54 AM55.9 °F52.0 °F87 %29.20 in9.0 miWSW (240°)11.5 mph20.7 mph0.14 inRainLight Rain
5:54 AM55.9 °F51.1 °F84 %29.21 in10.0 miSW (230°)11.5 mph25.3 mph0.01 inOvercast
7:54 AM46.9 °F30.9 °F54 %29.39 in10.0 miWest (280°)21.9 mph39.1 mphScattered Clouds
8:54 AM45.0 °F28.0 °F52 %29.48 in10.0 miWNW (290°)28.8 mph40.3 mphPartly Cloudy
9:54 AM45.0 °F24.1 °F44 %29.52 in10.0 miWest (280°)23.0 mph40.3 mphClear
10:54 AM46.0 °F23.0 °F40 %29.55 in10.0 miWest (280°)26.5 mph41.4 mphClear
11:54 AM45.0 °F23.0 °F42 %29.57 in10.0 miWest (270°)25.3 mph41.4 mphClear
12:54 PM46.9 °F21.0 °F36 %29.58 in10.0 miWest (270°)24.2 mph35.7 mphPartly Cloudy
1:54 PM46.0 °F21.0 °F37 %29.60 in10.0 miWest (260°)27.6 mph35.7 mphPartly Cloudy
2:54 PM45.0 °F18.0 °F34 %29.62 in10.0 miWest (280°)25.3 mph33.4 mphPartly Cloudy
3:54 PM43.0 °F21.0 °F42 %29.67 in10.0 miWest (280°)21.9 mph36.8 mphMostly Cloudy
4:54 PM39.0 °F19.0 °F45 %29.71 in10.0 miWest (280°)21.9 mph34.5 mphClear
5:54 PM37.0 °F14.0 °F39 %29.75 in10.0 miWNW (290°)24.2 mph31.1 mphClear
7:54 PM36.0 °F12.0 °F37 %29.83 in10.0 miWest (270°)21.9 mph31.1 mphClear
8:54 PM34.0 °F14.0 °F44 %29.85 in10.0 miWest (280°)13.8 mph26.5 mphClear
9:54 PM30.9 °F9.0 °F40 %29.88 in10.0 miWest (280°)18.4 mph36.8 mphClear
10:54 PM30.0 °F9.0 °F41 %29.90 in10.0 miWest (280°)11.5 mphClear
11:54 PM28.9 °F10.0 °F45 %29.91 in10.0 miWest (260°)6.9 mphClear
Hourly data recorded from KMIV, located miles away from Fortescue, New Jersey







STORIES FROM OUR PARTNERS